{"data":{"norad_id":68187,"intl_designator":"2026-050W","name":"STARLINK-37006","alt_names":[],"object_type":"PAYLOAD","status":"ACTIVE","operator":null,"country":"US","launch_date":"2026-03-14","launch_site_code":"AFETR","launch_vehicle":null,"mission":null,"orbit_class":"UNKNOWN","rcs_meters":null,"size_class":null,"mass_kg":null,"dimensions":null,"purposes":["comms"],"wikipedia_slug":null,"has_3d_model":false,"image_url":null,"decayed_at":null,"tle_current":{"epoch":"2026-09-19T21:51:12.442752Z","epoch_age_seconds":103156,"freshness":"FRESH","line1":"1 68187U 26050W   26262.91056068  .00019397  00000+0  58372-3 0  9992","line2":"2 68187  53.1591  80.7541 0001062  52.8905 307.2195 15.34400612 30476","mean_motion":15.34400612,"eccentricity":0.0001062,"inclination_deg":53.1591,"raan_deg":80.7541,"arg_perigee_deg":52.8905,"mean_anomaly_deg":307.2195,"bstar":0.00058372,"rev_number":3047,"period_min":93.847720649892,"perigee_km":461.9749241744,"apogee_km":463.42791825507,"semimajor_km":6840.8384212147,"source":"CELESTRAK","updated_at":"2026-09-20T09:00:43.803345Z"}}}